"Sample Date","Sample Time","Sample Value","Units","Flow Rate","Laser Status","Micron Size 0","Counts/Channel 0","Micron Size 1","Counts/Channel 1","Micron Size 2","Counts/Channel 2","Micron Size 3","Counts/Channel 3","Micron Size 4","Counts/Channel 4","Micron Size 5","Counts/Channel 5","Micron Size 6","Counts/Channel 6","Micron Size 7","Counts/Channel 7","Micron Size 8","Counts/Channel 8","Micron Size 9","Counts/Channel 9","Micron Size 10","Counts/Channel 10","Micron Size 11","Counts/Channel 11","Micron Size 12","Counts/Channel 12","Micron Size 13","Counts/Channel 13","Micron Size 14","Counts/Channel 14","Micron Size 15","Counts/Channel 15","Micron Size 16","Counts/Channel 16","Micron Size 17","Counts/Channel 17","Micron Size 18","Counts/Channel 18","Micron Size 19","Counts/Channel 19","Micron Size 20","Counts/Channel 20","Micron Size 21","Counts/Channel 21","Micron Size 22","Counts/Channel 22","Micron Size 23","Counts/Channel 23","Micron Size 24","Counts/Channel 24","Micron Size 25","Counts/Channel 25","Micron Size 26","Counts/Channel 26","Micron Size 27","Counts/Channel 27","Micron Size 28","Counts/Channel 28","Micron Size 29","Counts/Channel 29","Micron Size 30","Counts/Channel 30","Micron Size 31","Counts/Channel 31"
"03/03/08","04:00:04",37061.000,"cc",28325.029,1,0.100,34863.000,0.200,1083.000,0.300,438.000,0.500,507.000,1.000,170.000,5.000,0
"03/03/08","04:00:10",36929.000,"cc",28319.957,1,0.100,34593.000,0.200,1101.000,0.300,491.000,0.500,546.000,1.000,198.000,5.000,0
"03/03/08","04:00:16",36524.000,"cc",28291.318,1,0.100,34274.000,0.200,1099.000,0.300,452.000,0.500,523.000,1.000,176.000,5.000,0
"03/03/08","04:00:22",36671.000,"cc",28386.832,1,0.100,34438.000,0.200,1066.000,0.300,471.000,0.500,511.000,1.000,185.000,5.000,0
"03/03/08","04:00:28",36979.000,"cc",28308.709,1,0.100,34630.000,0.200,1127.000,0.300,490.000,0.500,554.000,1.000,178.000,5.000,0
"03/03/08","04:00:34",37256.000,"cc",28349.863,1,0.100,34950.000,0.200,1131.000,0.300,469.000,0.500,518.000,1.000,188.000,5.000,0
"03/03/08","04:00:40",36798.000,"cc",28295.350,1,0.100,34530.000,0.200,1123.000,0.300,451.000,0.500,513.000,1.000,181.000,5.000,0
"03/03/08","04:00:46",36613.000,"cc",28270.094,1,0.100,34309.000,0.200,1133.000,0.300,467.000,0.500,517.000,1.000,187.000,5.000,0
"03/03/08","04:00:52",36992.000,"cc",28348.981,1,0.100,34687.000,0.200,1090.000,0.300,504.000,0.500,514.000,1.000,197.000,5.000,0
"03/03/08","04:00:58",36659.000,"cc",28279.625,1,0.100,34352.000,0.200,1151.000,0.300,491.000,0.500,493.000,1.000,172.000,5.000,0
"03/03/08","04:01:04",36744.000,"cc",28218.707,1,0.100,34415.000,0.200,1172.000,0.300,481.000,0.500,508.000,1.000,168.000,5.000,0
"03/03/08","04:01:10",36941.000,"cc",28350.494,1,0.100,34621.000,0.200,1141.000,0.300,460.000,0.500,533.000,1.000,186.000,5.000,0
"03/03/08","04:01:16",36466.000,"cc",28346.553,1,0.100,34146.000,0.200,1199.000,0.300,455.000,0.500,507.000,1.000,159.000,5.000,0
"03/03/08","04:01:22",36682.000,"cc",28328.902,1,0.100,34403.000,0.200,1126.000,0.300,484.000,0.500,501.000,1.000,168.000,5.000,0
"03/03/08","04:01:28",36646.000,"cc",28321.885,1,0.100,34341.000,0.200,1124.000,0.300,471.000,0.500,533.000,1.000,177.000,5.000,0
"03/03/08","04:01:34",36544.000,"cc",28295.830,1,0.100,34322.000,0.200,1073.000,0.300,463.000,0.500,490.000,1.000,195.000,5.000,1.000
"03/03/08","04:01:40",36701.000,"cc",28296.941,1,0.100,34447.000,0.200,1130.000,0.300,418.000,0.500,541.000,1.000,165.000,5.000,0
"03/03/08","04:01:46",37139.000,"cc",28343.344,1,0.100,34847.000,0.200,1174.000,0.300,448.000,0.500,493.000,1.000,177.000,5.000,0
"03/03/08","04:01:52",36812.000,"cc",28341.107,1,0.100,34457.000,0.200,1131.000,0.300,501.000,0.500,539.000,1.000,184.000,5.000,0
"03/03/08","04:01:58",36722.000,"cc",28326.990,1,0.100,34413.000,0.200,1118.000,0.300,503.000,0.500,510.000,1.000,178.000,5.000,0
"03/03/08","04:02:04",36763.000,"cc",28286.590,1,0.100,34479.000,0.200,1083.000,0.300,503.000,0.500,510.000,1.000,188.000,5.000,0
"03/03/08","04:02:10",36985.000,"cc",28334.400,1,0.100,34760.000,0.200,1099.000,0.300,462.000,0.500,511.000,1.000,153.000,5.000,0
"03/03/08","04:02:16",36732.000,"cc",28266.061,1,0.100,34452.000,0.200,1135.000,0.300,455.000,0.500,495.000,1.000,195.000,5.000,0
"03/03/08","04:02:22",36602.000,"cc",28324.373,1,0.100,34362.000,0.200,1068.000,0.300,488.000,0.500,517.000,1.000,167.000,5.000,0
"03/03/08","04:02:28",36689.000,"cc",28279.557,1,0.100,34425.000,0.200,1114.000,0.300,499.000,0.500,489.000,1.000,162.000,5.000,0
"03/03/08","04:02:34",36856.000,"cc",28359.471,1,0.100,34507.000,0.200,1162.000,0.300,502.000,0.500,514.000,1.000,171.000,5.000,0
"03/03/08","04:02:40",36404.000,"cc",28263.805,1,0.100,34075.000,0.200,1143.000,0.300,502.000,0.500,493.000,1.000,191.000,5.000,0
"03/03/08","04:02:46",36521.000,"cc",28378.680,1,0.100,34189.000,0.200,1164.000,0.300,481.000,0.500,508.000,1.000,179.000,5.000,0
"03/03/08","04:02:52",36937.000,"cc",28390.387,1,0.100,34627.000,0.200,1118.000,0.300,458.000,0.500,543.000,1.000,191.000,5.000,0
"03/03/08","04:02:58",36628.000,"cc",28289.232,1,0.100,34431.000,0.200,1018.000,0.300,486.000,0.500,523.000,1.000,170.000,5.000,0
"03/03/08","04:03:04",36542.000,"cc",28241.697,1,0.100,34330.000,0.200,1076.000,0.300,524.000,0.500,473.000,1.000,139.000,5.000,0
"03/03/08","04:03:10",36553.000,"cc",28323.984,1,0.100,34226.000,0.200,1161.000,0.300,459.000,0.500,517.000,1.000,190.000,5.000,0
"03/03/08","04:03:16",36669.000,"cc",28311.791,1,0.100,34424.000,0.200,1097.000,0.300,466.000,0.500,515.000,1.000,167.000,5.000,0
"03/03/08","04:03:22",36404.000,"cc",28383.697,1,0.100,34177.000,0.200,1067.000,0.300,474.000,0.500,489.000,1.000,197.000,5.000,0
"03/03/08","04:03:28",36409.000,"cc",28301.402,1,0.100,34158.000,0.200,1083.000,0.300,470.000,0.500,517.000,1.000,181.000,5.000,0
"03/03/08","04:03:34",36256.000,"cc",28272.279,1,0.100,34018.000,0.200,1035.000,0.300,504.000,0.500,525.000,1.000,174.000,5.000,0
"03/03/08","04:03:40",36528.000,"cc",28336.231,1,0.100,34303.000,0.200,1059.000,0.300,449.000,0.500,538.000,1.000,179.000,5.000,0
"03/03/08","04:03:46",36465.000,"cc",28273.668,1,0.100,34239.000,0.200,1109.000,0.300,459.000,0.500,487.000,1.000,171.000,5.000,0
"03/03/08","04:03:52",36752.000,"cc",28365.190,1,0.100,34488.000,0.200,1125.000,0.300,448.000,0.500,541.000,1.000,150.000,5.000,0
"03/03/08","04:03:58",36439.000,"cc",28297.865,1,0.100,34105.000,0.200,1072.000,0.300,519.000,0.500,546.000,1.000,197.000,5.000,0
"03/03/08","04:04:04",36566.000,"cc",28289.988,1,0.100,34355.000,0.200,1095.000,0.300,447.000,0.500,491.000,1.000,178.000,5.000,0
"03/03/08","04:04:10",36566.000,"cc",28305.047,1,0.100,34309.000,0.200,1118.000,0.300,459.000,0.500,521.000,1.000,159.000,5.000,0
"03/03/08","04:04:16",36456.000,"cc",28278.256,1,0.100,34112.000,0.200,1166.000,0.300,495.000,0.500,504.000,1.000,179.000,5.000,0
"03/03/08","04:04:22",36630.000,"cc",28343.490,1,0.100,34406.000,0.200,1108.000,0.300,436.000,0.500,499.000,1.000,181.000,5.000,0
"03/03/08","04:04:28",36325.000,"cc",28350.264,1,0.100,34045.000,0.200,1140.000,0.300,470.000,0.500,485.000,1.000,185.000,5.000,0
"03/03/08","04:04:34",36538.000,"cc",28371.820,1,0.100,34148.000,0.200,1147.000,0.300,507.000,0.500,551.000,1.000,185.000,5.000,0
"03/03/08","04:04:40",36425.000,"cc",28240.381,1,0.100,34248.000,0.200,1085.000,0.300,430.000,0.500,468.000,1.000,194.000,5.000,0
"03/03/08","04:04:46",36614.000,"cc",28302.225,1,0.100,34260.000,0.200,1142.000,0.300,469.000,0.500,562.000,1.000,181.000,5.000,0
"03/03/08","04:04:52",36789.000,"cc",28362.529,1,0.100,34557.000,0.200,1076.000,0.300,481.000,0.500,502.000,1.000,173.000,5.000,0
"03/03/08","04:04:58",36726.000,"cc",28307.953,1,0.100,34389.000,0.200,1124.000,0.300,489.000,0.500,549.000,1.000,175.000,5.000,0
"03/03/08","04:05:04",36590.000,"cc",28319.145,1,0.100,34369.000,0.200,1087.000,0.300,464.000,0.500,476.000,1.000,194.000,5.000,0
"03/03/08","04:05:10",37073.000,"cc",28280.506,1,0.100,34779.000,0.200,1123.000,0.300,484.000,0.500,517.000,1.000,170.000,5.000,0
"03/03/08","04:05:16",36887.000,"cc",28362.611,1,0.100,34569.000,0.200,1115.000,0.300,504.000,0.500,539.000,1.000,160.000,5.000,0
"03/03/08","04:05:22",36758.000,"cc",28329.615,1,0.100,34519.000,0.200,1114.000,0.300,456.000,0.500,489.000,1.000,180.000,5.000,0
"03/03/08","04:05:28",36523.000,"cc",28260.815,1,0.100,34301.000,0.200,1064.000,0.300,505.000,0.500,472.000,1.000,181.000,5.000,0
"03/03/08","04:05:34",36801.000,"cc",28334.535,1,0.100,34481.000,0.200,1174.000,0.300,460.000,0.500,507.000,1.000,179.000,5.000,0
"03/03/08","04:05:40",36303.000,"cc",28394.482,1,0.100,34106.000,0.200,1054.000,0.300,478.000,0.500,497.000,1.000,168.000,5.000,0
"03/03/08","04:05:46",36743.000,"cc",28307.934,1,0.100,34439.000,0.200,1110.000,0.300,473.000,0.500,526.000,1.000,195.000,5.000,0
"03/03/08","04:05:52",36520.000,"cc",28316.471,1,0.100,34215.000,0.200,1194.000,0.300,461.000,0.500,488.000,1.000,162.000,5.000,0
"03/03/08","04:05:58",36403.000,"cc",28298.152,1,0.100,34151.000,0.200,1085.000,0.300,483.000,0.500,508.000,1.000,176.000,5.000,0
"03/03/08","04:06:04",36369.000,"cc",28347.367,1,0.100,34020.000,0.200,1135.000,0.300,485.000,0.500,529.000,1.000,200.000,5.000,0
"03/03/08","04:06:10",36646.000,"cc",28242.545,1,0.100,34328.000,0.200,1135.000,0.300,492.000,0.500,506.000,1.000,185.000,5.000,0
"03/03/08","04:06:16",36812.000,"cc",28305.272,1,0.100,34527.000,0.200,1133.000,0.300,475.000,0.500,510.000,1.000,167.000,5.000,0
"03/03/08","04:06:22",36316.000,"cc",28349.961,1,0.100,34026.000,0.200,1079.000,0.300,495.000,0.500,527.000,1.000,189.000,5.000,0
"03/03/08","04:06:28",36241.000,"cc",28279.795,1,0.100,33993.000,0.200,1132.000,0.300,438.000,0.500,500.000,1.000,178.000,5.000,0
"03/03/08","04:06:34",36162.000,"cc",28347.244,1,0.100,33850.000,0.200,1142.000,0.300,488.000,0.500,490.000,1.000,192.000,5.000,0
"03/03/08","04:06:40",36337.000,"cc",28294.580,1,0.100,34056.000,0.200,1078.000,0.300,503.000,0.500,499.000,1.000,201.000,5.000,0
"03/03/08","04:06:46",36511.000,"cc",28306.326,1,0.100,34239.000,0.200,1114.000,0.300,483.000,0.500,517.000,1.000,158.000,5.000,0
"03/03/08","04:06:52",36539.000,"cc",28340.824,1,0.100,34183.000,0.200,1173.000,0.300,509.000,0.500,503.000,1.000,171.000,5.000,0
"03/03/08","04:06:58",36375.000,"cc",28323.672,1,0.100,34157.000,0.200,1078.000,0.300,464.000,0.500,501.000,1.000,175.000,5.000,0
"03/03/08","04:07:04",36457.000,"cc",28329.596,1,0.100,34165.000,0.200,1152.000,0.300,447.000,0.500,516.000,1.000,177.000,5.000,0
"03/03/08","04:07:10",36562.000,"cc",28347.869,1,0.100,34271.000,0.200,1132.000,0.300,485.000,0.500,500.000,1.000,174.000,5.000,0
"03/03/08","04:07:16",36171.000,"cc",28334.373,1,0.100,33995.000,0.200,1071.000,0.300,463.000,0.500,483.000,1.000,159.000,5.000,0
"03/03/08","04:07:22",36254.000,"cc",28250.191,1,0.100,33941.000,0.200,1141.000,0.300,462.000,0.500,524.000,1.000,186.000,5.000,0
"03/03/08","04:07:28",36463.000,"cc",28330.865,1,0.100,34153.000,0.200,1124.000,0.300,479.000,0.500,551.000,1.000,156.000,5.000,0
"03/03/08","04:07:34",36265.000,"cc",28329.918,1,0.100,34024.000,0.200,1123.000,0.300,468.000,0.500,479.000,1.000,171.000,5.000,0
"03/03/08","04:07:40",36526.000,"cc",28298.680,1,0.100,34256.000,0.200,1131.000,0.300,490.000,0.500,482.000,1.000,167.000,5.000,0
"03/03/08","04:07:46",36470.000,"cc",28303.330,1,0.100,34216.000,0.200,1073.000,0.300,460.000,0.500,558.000,1.000,163.000,5.000,0
"03/03/08","04:07:52",36316.000,"cc",28371.400,1,0.100,34089.000,0.200,1090.000,0.300,468.000,0.500,515.000,1.000,154.000,5.000,0
"03/03/08","04:07:58",36337.000,"cc",28331.061,1,0.100,34122.000,0.200,1027.000,0.300,461.000,0.500,545.000,1.000,182.000,5.000,0
"03/03/08","04:08:04",36308.000,"cc",28305.203,1,0.100,34072.000,0.200,1058.000,0.300,488.000,0.500,525.000,1.000,165.000,5.000,0
"03/03/08","04:08:10",36320.000,"cc",28301.609,1,0.100,33964.000,0.200,1182.000,0.300,487.000,0.500,524.000,1.000,163.000,5.000,0
"03/03/08","04:08:16",36441.000,"cc",28315.248,1,0.100,34078.000,0.200,1178.000,0.300,491.000,0.500,526.000,1.000,168.000,5.000,0
"03/03/08","04:08:22",36271.000,"cc",28332.947,1,0.100,33961.000,0.200,1104.000,0.300,497.000,0.500,533.000,1.000,176.000,5.000,0
"03/03/08","04:08:28",36247.000,"cc",28288.328,1,0.100,33956.000,0.200,1130.000,0.300,447.000,0.500,523.000,1.000,191.000,5.000,0
"03/03/08","04:08:34",36906.000,"cc",28311.904,1,0.100,34570.000,0.200,1156.000,0.300,485.000,0.500,532.000,1.000,163.000,5.000,0
"03/03/08","04:08:40",36247.000,"cc",28359.951,1,0.100,33954.000,0.200,1104.000,0.300,486.000,0.500,534.000,1.000,169.000,5.000,0
"03/03/08","04:08:46",35967.000,"cc",28292.666,1,0.100,33691.000,0.200,1144.000,0.300,472.000,0.500,491.000,1.000,169.000,5.000,0
"03/03/08","04:08:52",36550.000,"cc",28314.020,1,0.100,34363.000,0.200,1074.000,0.300,440.000,0.500,504.000,1.000,169.000,5.000,0
"03/03/08","04:08:58",36525.000,"cc",28360.145,1,0.100,34201.000,0.200,1116.000,0.300,491.000,0.500,528.000,1.000,189.000,5.000,0
"03/03/08","04:09:04",35994.000,"cc",28315.906,1,0.100,33779.000,0.200,1086.000,0.300,428.000,0.500,510.000,1.000,191.000,5.000,0
"03/03/08","04:09:10",36198.000,"cc",28313.281,1,0.100,33943.000,0.200,1087.000,0.300,473.000,0.500,542.000,1.000,153.000,5.000,0
"03/03/08","04:09:16",36563.000,"cc",28360.879,1,0.100,34330.000,0.200,1096.000,0.300,441.000,0.500,517.000,1.000,179.000,5.000,0
"03/03/08","04:09:22",36338.000,"cc",28300.477,1,0.100,34054.000,0.200,1101.000,0.300,500.000,0.500,514.000,1.000,169.000,5.000,0
"03/03/08","04:09:28",36040.000,"cc",28208.129,1,0.100,33810.000,0.200,1074.000,0.300,455.000,0.500,521.000,1.000,180.000,5.000,0
"03/03/08","04:09:34",36449.000,"cc",28334.356,1,0.100,34181.000,0.200,1104.000,0.300,501.000,0.500,505.000,1.000,158.000,5.000,0
"03/03/08","04:09:40",36075.000,"cc",28336.631,1,0.100,33802.000,0.200,1115.000,0.300,479.000,0.500,501.000,1.000,178.000,5.000,0
"03/03/08","04:09:46",36347.000,"cc",28318.188,1,0.100,33996.000,0.200,1123.000,0.300,520.000,0.500,532.000,1.000,176.000,5.000,0
"03/03/08","04:09:52",35914.000,"cc",28296.650,1,0.100,33713.000,0.200,1082.000,0.300,457.000,0.500,506.000,1.000,156.000,5.000,0
"03/03/08","04:09:58",35980.000,"cc",28343.734,1,0.100,33755.000,0.200,1096.000,0.300,456.000,0.500,511.000,1.000,162.000,5.000,0
"03/03/08","04:10:04",36370.000,"cc",28324.277,1,0.100,34119.000,0.200,1089.000,0.300,506.000,0.500,491.000,1.000,165.000,5.000,0
"03/03/08","04:10:10",36517.000,"cc",28315.047,1,0.100,34173.000,0.200,1167.000,0.300,499.000,0.500,503.000,1.000,175.000,5.000,0
"03/03/08","04:10:16",36085.000,"cc",28310.215,1,0.100,33940.000,0.200,1038.000,0.300,453.000,0.500,475.000,1.000,179.000,5.000,0
"03/03/08","04:10:22",36173.000,"cc",28299.117,1,0.100,33841.000,0.200,1133.000,0.300,489.000,0.500,519.000,1.000,191.000,5.000,0
"03/03/08","04:10:28",36417.000,"cc",28377.193,1,0.100,34215.000,0.200,1100.000,0.300,465.000,0.500,469.000,1.000,168.000,5.000,0
"03/03/08","04:10:34",36262.000,"cc",28242.090,1,0.100,34013.000,0.200,1134.000,0.300,453.000,0.500,519.000,1.000,143.000,5.000,0
"03/03/08","04:10:40",36165.000,"cc",28295.875,1,0.100,33910.000,0.200,1088.000,0.300,468.000,0.500,514.000,1.000,185.000,5.000,0
"03/03/08","04:10:46",36465.000,"cc",28342.357,1,0.100,34151.000,0.200,1143.000,0.300,478.000,0.500,508.000,1.000,185.000,5.000,0
"03/03/08","04:10:52",36190.000,"cc",28347.977,1,0.100,33887.000,0.200,1131.000,0.300,479.000,0.500,519.000,1.000,174.000,5.000,0
"03/03/08","04:10:58",36136.000,"cc",28356.824,1,0.100,33887.000,0.200,1128.000,0.300,466.000,0.500,492.000,1.000,163.000,5.000,0
"03/03/08","04:11:04",36105.000,"cc",28292.479,1,0.100,33921.000,0.200,1044.000,0.300,477.000,0.500,525.000,1.000,138.000,5.000,0
"03/03/08","04:11:10",36093.000,"cc",28350.922,1,0.100,33823.000,0.200,1108.000,0.300,514.000,0.500,491.000,1.000,157.000,5.000,0
"03/03/08","04:11:16",35909.000,"cc",28314.981,1,0.100,33636.000,0.200,1100.000,0.300,493.000,0.500,518.000,1.000,162.000,5.000,0
"03/03/08","04:11:22",36414.000,"cc",28284.049,1,0.100,34199.000,0.200,1073.000,0.300,464.000,0.500,491.000,1.000,187.000,5.000,0
"03/03/08","04:11:28",35795.000,"cc",28288.777,1,0.100,33589.000,0.200,1073.000,0.300,462.000,0.500,520.000,1.000,151.000,5.000,0
"03/03/08","04:11:34",36200.000,"cc",28351.637,1,0.100,33992.000,0.200,1123.000,0.300,423.000,0.500,489.000,1.000,173.000,5.000,0
"03/03/08","04:11:40",35952.000,"cc",28321.205,1,0.100,33778.000,0.200,1080.000,0.300,452.000,0.500,481.000,1.000,161.000,5.000,0
"03/03/08","04:11:46",36091.000,"cc",28368.785,1,0.100,33871.000,0.200,1067.000,0.300,506.000,0.500,479.000,1.000,168.000,5.000,0
"03/03/08","04:11:52",36185.000,"cc",28287.381,1,0.100,33899.000,0.200,1099.000,0.300,491.000,0.500,524.000,1.000,172.000,5.000,0
"03/03/08","04:11:58",36542.000,"cc",28284.477,1,0.100,34267.000,0.200,1144.000,0.300,462.000,0.500,496.000,1.000,173.000,5.000,0
"03/03/08","04:12:04",36106.000,"cc",28295.484,1,0.100,33850.000,0.200,1088.000,0.300,470.000,0.500,532.000,1.000,166.000,5.000,0
"03/03/08","04:12:10",35803.000,"cc",28320.684,1,0.100,33679.000,0.200,1025.000,0.300,445.000,0.500,486.000,1.000,168.000,5.000,0
"03/03/08","04:12:16",36203.000,"cc",28315.049,1,0.100,33930.000,0.200,1166.000,0.300,458.000,0.500,492.000,1.000,157.000,5.000,0
"03/03/08","04:12:22",36034.000,"cc",28295.566,1,0.100,33860.000,0.200,1071.000,0.300,465.000,0.500,469.000,1.000,169.000,5.000,0
"03/03/08","04:12:28",35979.000,"cc",28315.885,1,0.100,33773.000,0.200,1063.000,0.300,486.000,0.500,504.000,1.000,153.000,5.000,0
"03/03/08","04:12:34",36194.000,"cc",28312.938,1,0.100,33921.000,0.200,1093.000,0.300,483.000,0.500,541.000,1.000,156.000,5.000,0
"03/03/08","04:12:40",36487.000,"cc",28276.244,1,0.100,34279.000,0.200,1066.000,0.300,487.000,0.500,465.000,1.000,190.000,5.000,0
"03/03/08","04:12:46",36241.000,"cc",28348.356,1,0.100,33997.000,0.200,1129.000,0.300,459.000,0.500,482.000,1.000,174.000,5.000,0
"03/03/08","04:12:52",36131.000,"cc",28351.299,1,0.100,33850.000,0.200,1108.000,0.300,498.000,0.500,494.000,1.000,181.000,5.000,0
"03/03/08","04:12:58",36085.000,"cc",28317.867,1,0.100,33814.000,0.200,1117.000,0.300,471.000,0.500,505.000,1.000,178.000,5.000,0
"03/03/08","04:13:04",35987.000,"cc",28291.275,1,0.100,33723.000,0.200,1129.000,0.300,465.000,0.500,520.000,1.000,150.000,5.000,0
"03/03/08","04:13:10",36050.000,"cc",28289.330,1,0.100,33862.000,0.200,1071.000,0.300,453.000,0.500,500.000,1.000,164.000,5.000,0
"03/03/08","04:13:16",36272.000,"cc",28327.123,1,0.100,33996.000,0.200,1163.000,0.300,478.000,0.500,473.000,1.000,162.000,5.000,0
"03/03/08","04:13:22",36454.000,"cc",28316.518,1,0.100,34234.000,0.200,1061.000,0.300,489.000,0.500,513.000,1.000,157.000,5.000,0
"03/03/08","04:13:28",36400.000,"cc",28337.305,1,0.100,34084.000,0.200,1133.000,0.300,489.000,0.500,516.000,1.000,178.000,5.000,0
"03/03/08","04:13:34",36180.000,"cc",28358.490,1,0.100,33911.000,0.200,1108.000,0.300,483.000,0.500,522.000,1.000,156.000,5.000,0
"03/03/08","04:13:40",36110.000,"cc",28287.400,1,0.100,33807.000,0.200,1164.000,0.300,488.000,0.500,507.000,1.000,144.000,5.000,0
"03/03/08","04:13:46",36163.000,"cc",28375.799,1,0.100,34004.000,0.200,1060.000,0.300,438.000,0.500,492.000,1.000,169.000,5.000,0
"03/03/08","04:13:52",35978.000,"cc",28360.473,1,0.100,33707.000,0.200,1106.000,0.300,505.000,0.500,507.000,1.000,153.000,5.000,0
"03/03/08","04:13:58",35985.000,"cc",28262.768,1,0.100,33653.000,0.200,1136.000,0.300,499.000,0.500,534.000,1.000,163.000,5.000,0
"03/03/08","04:14:04",36191.000,"cc",28295.397,1,0.100,33929.000,0.200,1110.000,0.300,459.000,0.500,522.000,1.000,171.000,5.000,0
"03/03/08","04:14:10",36043.000,"cc",28300.000,1,0.100,33796.000,0.200,1130.000,0.300,476.000,0.500,481.000,1.000,160.000,5.000,0
"03/03/08","04:14:16",36041.000,"cc",28333.969,1,0.100,33778.000,0.200,1100.000,0.300,501.000,0.500,489.000,1.000,173.000,5.000,0
"03/03/08","04:14:22",36211.000,"cc",28270.250,1,0.100,33926.000,0.200,1135.000,0.300,483.000,0.500,506.000,1.000,161.000,5.000,0
"03/03/08","04:14:28",36153.000,"cc",28329.990,1,0.100,33930.000,0.200,1144.000,0.300,479.000,0.500,468.000,1.000,132.000,5.000,0
"03/03/08","04:14:34",36267.000,"cc",28337.816,1,0.100,34014.000,0.200,1132.000,0.300,435.000,0.500,513.000,1.000,173.000,5.000,0
"03/03/08","04:14:40",35998.000,"cc",28374.781,1,0.100,33728.000,0.200,1173.000,0.300,481.000,0.500,476.000,1.000,140.000,5.000,0
"03/03/08","04:14:46",35962.000,"cc",28322.742,1,0.100,33746.000,0.200,1089.000,0.300,466.000,0.500,496.000,1.000,165.000,5.000,0
"03/03/08","04:14:52",35961.000,"cc",28308.582,1,0.100,33763.000,0.200,1101.000,0.300,483.000,0.500,485.000,1.000,129.000,5.000,0
"03/03/08","04:14:58",35760.000,"cc",28329.824,1,0.100,33557.000,0.200,1088.000,0.300,459.000,0.500,498.000,1.000,158.000,5.000,0
"03/03/08","04:15:04",36335.000,"cc",28286.049,1,0.100,34004.000,0.200,1120.000,0.300,500.000,0.500,527.000,1.000,184.000,5.000,0
"03/03/08","04:15:10",35924.000,"cc",28321.953,1,0.100,33740.000,0.200,1123.000,0.300,428.000,0.500,490.000,1.000,143.000,5.000,0
"03/03/08","04:15:16",35972.000,"cc",28370.039,1,0.100,33822.000,0.200,1042.000,0.300,454.000,0.500,500.000,1.000,154.000,5.000,0
"03/03/08","04:15:22",35896.000,"cc",28294.971,1,0.100,33522.000,0.200,1170.000,0.300,508.000,0.500,503.000,1.000,193.000,5.000,0
"03/03/08","04:15:28",35836.000,"cc",28350.703,1,0.100,33633.000,0.200,1121.000,0.300,472.000,0.500,452.000,1.000,158.000,5.000,0
"03/03/08","04:15:34",36178.000,"cc",28313.047,1,0.100,33946.000,0.200,1088.000,0.300,482.000,0.500,492.000,1.000,170.000,5.000,0
"03/03/08","04:15:40",36071.000,"cc",28254.176,1,0.100,33827.000,0.200,1097.000,0.300,465.000,0.500,517.000,1.000,165.000,5.000,0
"03/03/08","04:15:46",35969.000,"cc",28289.268,1,0.100,33777.000,0.200,1064.000,0.300,463.000,0.500,496.000,1.000,169.000,5.000,0
"03/03/08","04:15:52",35847.000,"cc",28341.981,1,0.100,33644.000,0.200,1106.000,0.300,485.000,0.500,460.000,1.000,152.000,5.000,0
"03/03/08","04:15:58",36066.000,"cc",28331.824,1,0.100,33728.000,0.200,1186.000,0.300,484.000,0.500,505.000,1.000,163.000,5.000,0
"03/03/08","04:16:04",35902.000,"cc",28341.424,1,0.100,33711.000,0.200,1060.000,0.300,493.000,0.500,479.000,1.000,159.000,5.000,0
"03/03/08","04:16:10",36221.000,"cc",28304.867,1,0.100,33969.000,0.200,1089.000,0.300,461.000,0.500,521.000,1.000,181.000,5.000,0
"03/03/08","04:16:16",35926.000,"cc",28314.344,1,0.100,33786.000,0.200,1020.000,0.300,449.000,0.500,504.000,1.000,167.000,5.000,0
"03/03/08","04:16:22",36084.000,"cc",28311.598,1,0.100,33828.000,0.200,1120.000,0.300,500.000,0.500,482.000,1.000,154.000,5.000,0
"03/03/08","04:16:28",36014.000,"cc",28297.191,1,0.100,33765.000,0.200,1132.000,0.300,460.000,0.500,504.000,1.000,153.000,5.000,0
"03/03/08","04:16:34",35832.000,"cc",28311.361,1,0.100,33606.000,0.200,1097.000,0.300,479.000,0.500,498.000,1.000,152.000,5.000,0
"03/03/08","04:16:40",35821.000,"cc",28310.346,1,0.100,33614.000,0.200,1087.000,0.300,471.000,0.500,481.000,1.000,168.000,5.000,0
"03/03/08","04:16:46",35619.000,"cc",28328.129,1,0.100,33512.000,0.200,1034.000,0.300,445.000,0.500,471.000,1.000,157.000,5.000,0
"03/03/08","04:16:52",36236.000,"cc",28305.410,1,0.100,33884.000,0.200,1143.000,0.300,527.000,0.500,517.000,1.000,165.000,5.000,0
"03/03/08","04:16:58",35766.000,"cc",28340.193,1,0.100,33511.000,0.200,1133.000,0.300,441.000,0.500,529.000,1.000,152.000,5.000,0
"03/03/08","04:17:04",35919.000,"cc",28334.703,1,0.100,33626.000,0.200,1120.000,0.300,510.000,0.500,495.000,1.000,168.000,5.000,0
"03/03/08","04:17:10",35693.000,"cc",28312.045,1,0.100,33516.000,0.200,1028.000,0.300,477.000,0.500,523.000,1.000,149.000,5.000,0
"03/03/08","04:17:16",36299.000,"cc",28263.416,1,0.100,33995.000,0.200,1121.000,0.300,474.000,0.500,545.000,1.000,164.000,5.000,0